This is the latest recevied weather packets stored in our database for station/object SQ2LXT-10. If no packets are shown the sender has not sent any weather packets the latest 10 day(s).
| Time | Temp. | Humidity | Pressure | Rain* | Wind** | Luminosity | Snow |
|---|---|---|---|---|---|---|---|
| 1777601717 | 0.56° C | 100% | 1022.2 hPa | - | - | - | - |
| 1777600816 | 0.56° C | 100% | 1022.1 hPa | - | - | - | - |
| 1777599917 | 1.11° C | 100% | 1022 hPa | - | - | - | - |
| 1777599017 | 1.11° C | 100% | 1022 hPa | - | - | - | - |
| 1777598116 | 1.11° C | 100% | 1022 hPa | - | - | - | - |
| 1777597216 | 1.67° C | 100% | 1022 hPa | - | - | - | - |
| 1777596316 | 1.67° C | 100% | 1021.8 hPa | - | - | - | - |
| 1777595416 | 2.22° C | 100% | 1022 hPa | - | - | - | - |
| 1777594516 | 2.22° C | 100% | 1022.1 hPa | - | - | - | - |
| 1777593616 | 2.78° C | 100% | 1022.1 hPa | - | - | - | - |
| 1777592716 | 2.78° C | 100% | 1022.1 hPa | - | - | - | - |
| 1777591816 | 3.33° C | 100% | 1022.1 hPa | - | - | - | - |
| 1777590916 | 3.33° C | 100% | 1022.1 hPa | - | - | - | - |
| 1777590016 | 3.33° C | 100% | 1022 hPa | - | - | - | - |
| 1777589116 | 3.89° C | 100% | 1022 hPa | - | - | - | - |
| 1777588217 | 3.89° C | 100% | 1022 hPa | - | - | - | - |
| 1777587316 | 4.44° C | 100% | 1022.1 hPa | - | - | - | - |
| 1777586417 | 5° C | 100% | 1021.9 hPa | - | - | - | - |
| 1777585516 | 5° C | 100% | 1022 hPa | - | - | - | - |
| 1777584619 | 5° C | 100% | 1021.9 hPa | - | - | - | - |
| 1777583717 | 5.56° C | 100% | 1021.9 hPa | - | - | - | - |
| 1777582817 | 5.56° C | 100% | 1021.7 hPa | - | - | - | - |
| 1777581916 | 6.11° C | 100% | 1021.7 hPa | - | - | - | - |
| 1777581017 | 6.67° C | 100% | 1021.8 hPa | - | - | - | - |
| 1777580116 | 7.78° C | 100% | 1021.9 hPa | - | - | - | - |
* Rain since midnight (hover to see other rain measurements)
** Current wind speed in m/s (hover to see current wind gust speed)